Location: Champs
(48.8539°N, 2.6040°E)
Time: 17:21:42
(UTC+00:00)

Cosmos 1538 Rocket - Pass Details

Date: 30 May 2022
Orbit: 752 x 791 km, 74.0° (Epoch: 02 July)

Event Time Altitude Azimuth Distance (km) Brightness Sun altitude
Rises 20:31:18 0° 338° (NNW) 3,251 8.7 -6.9°
Reaches altitude 10° 20:33:43 10° 341° (NNW) 2,314 7.7 -7.2°
Maximum altitude 20:38:56 69° 64° (ENE) 815 4.1 -7.8°
Drops below altitude 10° 20:44:05 10° 149° (SSE) 2,278 5.8 -8.4°
Enters shadow 20:44:07 10° 149° (SSE) 2,290 5.8 -8.4°
